CW2389 Weather Reports


time (UTC)temp
C
wind
direction
speed
KPH
gust
KPH
rain 1hr
cm
rain 24hr
cm
rain mn
cm
humidity
%
barometer
mb
20260509091629 11 150 3.2 14.5 0.00 0.00 0.00 82 1003.6
20260509091140 11 360 6.4 19.3 0.00 0.00 0.00 82 1003.8
20260509090631 11 151 11.3 19.3 0.00 0.00 0.00 82 1003.8
20260509090125 11 152 6.4 16.1 0.00 0.00 0.00 82 1003.9
20260509085705 11 154 6.4 11.3 0.00 0.00 0.00 81 1004.0
20260509085129 11 146 4.8 11.3 0.00 0.00 0.00 81 1004.1
20260509084653 11 157 3.2 12.9 0.00 0.00 0.00 80 1004.0
20260509084134 11 151 3.2 14.5 0.00 0.00 0.00 79 1004.0
20260509083624 11 153 4.8 14.5 0.00 0.00 0.00 79 1004.0
20260509083128 11 160 4.8 12.9 0.00 0.00 0.00 78 1004.2
20260509082640 11 142 6.4 12.9 0.00 0.00 0.00 77 1004.4
20260509082130 10 153 3.2 9.7 0.00 0.00 0.00 76 1004.5
20260509081710 10 360 3.2 8.0 0.00 0.00 0.00 75 1004.6
20260509081139 10 159 4.8 11.3 0.00 0.00 0.00 74 1004.5
20260509080649 10 144 4.8 9.7 0.00 0.00 0.00 74 1004.6
20260509080144 10 360 3.2 8.0 0.00 0.00 0.00 73 1004.7
20260509075636 10 171 3.2 6.4 0.00 0.00 0.00 72 1004.7
20260509075154 11 177 3.2 6.4 0.00 0.00 0.00 71 1004.7
20260509074629 11 150 1.6 6.4 0.00 0.00 0.00 70 1004.8
20260509074135 11 146 3.2 8.0 0.00 0.00 0.00 69 1004.9
20260509073646 11 360 3.2 8.0 0.00 0.00 0.00 69 1004.8
20260509073149 11 167 3.2 8.0 0.00 0.00 0.00 68 1004.9
20260509072631 11 360 4.8 9.7 0.00 0.00 0.00 67 1004.9
20260509072151 11 177 3.2 11.3 0.00 0.00 0.00 66 1005.0
20260509071645 11 194 4.8 16.1 0.00 0.00 0.00 66 1005.1
20260509071136 11 161 4.8 16.1 0.00 0.00 0.00 64 1005.1
20260509070642 11 360 6.4 14.5 0.00 0.00 0.00 63 1005.1
20260509070146 11 360 6.4 14.5 0.00 0.00 0.00 62 1005.2
20260509065657 11 175 3.2 16.1 0.00 0.00 0.00 60 1005.1
20260509065127 11 360 4.8 16.1 0.00 0.00 0.00 57 1005.1
20260509064641 11 159 4.8 11.3 0.00 0.00 0.00 55 1005.0
20260509064201 11 360 4.8 19.3 0.00 0.00 0.00 52 1005.3
20260509063647 11 190 4.8 19.3 0.00 0.00 0.00 50 1005.4
20260509063149 11 360 6.4 16.1 0.00 0.00 0.00 48 1005.4
20260509062700 11 146 6.4 14.5 0.00 0.00 0.00 46 1005.6
20260509062149 11 207 4.8 8.0 0.00 0.00 0.00 44 1005.5
20260509061653 11 360 4.8 12.9 0.00 0.00 0.00 43 1005.6
20260509061142 11 146 6.4 12.9 0.00 0.00 0.00 42 1005.6
20260509060648 11 148 6.4 12.9 0.00 0.00 0.00 42 1005.5
20260509060151 11 167 4.8 14.5 0.00 0.00 0.00 42 1005.6
20260509055642 11 153 4.8 14.5 0.00 0.00 0.00 42 1005.7
20260509055152 11 153 4.8 12.9 0.00 0.00 0.00 42 1005.8
20260509054626 11 182 4.8 12.9 0.00 0.00 0.00 42 1005.9
20260509054137 11 178 6.4 11.3 0.00 0.00 0.00 41 1005.9
20260509053628 11 184 4.8 6.4 0.00 0.00 0.00 42 1006.0
20260509053148 11 188 4.8 6.4 0.00 0.00 0.00 42 1005.9
20260509052639 11 172 3.2 6.4 0.00 0.00 0.00 42 1005.9
20260509052149 11 171 4.8 6.4 0.00 0.00 0.00 41 1005.9
20260509051653 11 360 3.2 8.0 0.00 0.00 0.00 41 1005.8
20260509051134 11 171 4.8 11.3 0.00 0.00 0.00 41 1005.9
20260509050625 11 159 4.8 12.9 0.00 0.00 0.00 41 1006.0
20260509050130 11 155 3.2 12.9 0.00 0.00 0.00 41 1006.0
20260509045657 11 148 6.4 12.9 0.00 0.00 0.00 41 1006.0
20260509045146 11 144 4.8 9.7 0.00 0.00 0.00 41 1006.0
20260509044628 11 166 3.2 9.7 0.00 0.00 0.00 40 1006.1
20260509044159 11 155 3.2 9.7 0.00 0.00 0.00 41 1006.0
20260509043628 11 156 4.8 9.7 0.00 0.00 0.00 40 1006.0
20260509043148 11 160 4.8 8.0 0.00 0.00 0.00 40 1006.1
20260509042639 11 166 3.2 8.0 0.00 0.00 0.00 40 1006.2
20260509042149 11 172 3.2 6.4 0.00 0.00 0.00 40 1006.2
20260509041704 11 155 3.2 4.8 0.00 0.00 0.00 40 1006.2
20260509041141 11 153 1.6 3.2 0.00 0.00 0.00 41 1006.4
20260509040632 11 153 0.0 4.8 0.00 0.00 0.00 40 1006.4
20260509040126 11 153 1.6 4.8 0.00 0.00 0.00 40 1006.4
20260509035633 12 153 1.6 4.8 0.00 0.00 0.00 40 1006.6
20260509035143 12 153 1.6 4.8 0.00 0.00 0.00 39 1006.7
20260509034647 12 153 3.2 4.8 0.00 0.00 0.00 39 1006.7
20260509034129 12 154 1.6 4.8 0.00 0.00 0.00 39 1006.6
20260509033648 12 153 1.6 8.0 0.00 0.00 0.00 39 1006.7
20260509033142 12 153 3.2 8.0 0.00 0.00 0.00 38 1006.7
20260509032634 12 153 0.0 8.0 0.00 0.00 0.00 39 1006.7
20260509032145 12 153 3.2 8.0 0.00 0.00 0.00 38 1006.8
20260509031636 12 153 1.6 3.2 0.00 0.00 0.00 38 1006.9
20260509031147 12 153 1.6 3.2 0.00 0.00 0.00 38 1006.9
20260509030646 12 153 1.6 4.8 0.00 0.00 0.00 38 1007.0
20260509030141 12 153 1.6 4.8 0.00 0.00 0.00 38 1007.0
20260509025632 12 153 0.0 9.7 0.00 0.00 0.00 38 1007.1
20260509025203 12 152 3.2 9.7 0.00 0.00 0.00 37 1007.1
20260509024642 12 153 1.6 8.0 0.00 0.00 0.00 37 1007.3
20260509024132 12 155 3.2 8.0 0.00 0.00 0.00 37 1007.4
20260509023643 12 156 1.6 3.2 0.00 0.00 0.00 37 1007.4
20260509023208 12 156 0.0 3.2 0.00 0.00 0.00 37 1007.4
20260509022627 13 153 0.0 3.2 0.00 0.00 0.00 37 1007.4
20260509022147 13 153 1.6 3.2 0.00 0.00 0.00 37 1007.4
20260509021642 13 153 0.0 3.2 0.00 0.00 0.00 37 1007.3
20260509021133 13 152 1.6 3.2 0.00 0.00 0.00 36 1007.3
20260509020639 13 152 0.0 3.2 0.00 0.00 0.00 36 1007.3
20260509020133 13 152 0.0 3.2 0.00 0.00 0.00 36 1007.3
20260509015644 13 151 0.0 4.8 0.00 0.00 0.00 36 1007.1
20260509015142 13 151 1.6 8.0 0.00 0.00 0.00 35 1007.0
20260509014636 13 151 3.2 8.0 0.00 0.00 0.00 35 1007.1
20260509014127 14 152 4.8 8.0 0.00 0.00 0.00 34 1007.1
20260509013638 13 143 4.8 8.0 0.00 0.00 0.00 34 1007.1
20260509013128 13 167 1.6 3.2 0.00 0.00 0.00 35 1007.1
20260509012649 14 167 1.6 4.8 0.00 0.00 0.00 34 1007.1
20260509012130 14 167 0.0 4.8 0.00 0.00 0.00 34 1007.1
20260509011633 14 360 1.6 3.2 0.00 0.00 0.00 34 1007.1
20260509011142 14 167 0.0 3.2 0.00 0.00 0.00 34 1007.1
20260509010633 15 360 0.0 4.8 0.00 0.00 0.00 33 1007.1
20260509010128 15 167 1.6 4.8 0.00 0.00 0.00 32 1007.2
20260509005644 15 178 1.6 4.8 0.00 0.00 0.00 32 1007.1
20260509005133 15 166 1.6 8.0 0.00 0.00 0.00 32 1007.1
20260509004627 15 360 3.2 8.0 0.00 0.00 0.00 31 1007.1
20260509004138 15 157 3.2 8.0 0.00 0.00 0.00 31 1007.2
20260509003629 15 168 1.6 8.0 0.00 0.00 0.00 31 1007.2
20260509003132 15 166 3.2 9.7 0.00 0.00 0.00 31 1007.2
20260509002643 15 188 4.8 11.3 0.00 0.00 0.00 31 1007.3
20260509002130 15 177 6.4 11.3 0.00 0.00 0.00 31 1007.3
20260509001714 16 360 4.8 12.9 0.00 0.00 0.00 31 1007.4
20260509001132 16 360 8.0 12.9 0.00 0.00 0.00 30 1007.4
20260509000652 16 185 6.4 12.9 0.00 0.00 0.00 29 1007.5
20260509000127 16 205 6.4 12.9 0.00 0.00 0.00 29 1007.5
20260508235638 16 360 4.8 16.1 0.00 0.00 0.00 29 1007.5
20260508235129 16 203 8.0 16.1 0.00 0.00 0.00 30 1007.6
20260508234640 16 208 9.7 12.9 0.00 0.00 0.00 30 1007.7
20260508234131 16 360 9.7 19.3 0.00 0.00 0.00 30 1007.6
20260508233642 16 221 11.3 19.3 0.00 0.00 0.00 30 1007.6
20260508233145 17 360 9.7 17.7 0.00 0.00 0.00 30 1007.7
20260508232636 17 223 6.4 14.5 0.00 0.00 0.00 29 1007.7
20260508232147 17 202 6.4 17.7 0.00 0.00 0.00 28 1007.7
20260508231642 17 259 9.7 17.7 0.00 0.00 0.00 29 1007.8
20260508231132 17 233 9.7 17.7 0.00 0.00 0.00 29 1007.8
20260508230638 17 223 6.4 12.9 0.00 0.00 0.00 29 1007.8
20260508230202 17 360 4.8 12.9 0.00 0.00 0.00 29 1007.8
20260508225632 17 244 6.4 12.9 0.00 0.00 0.00 29 1007.7
20260508225141 17 360 6.4 14.5 0.00 0.00 0.00 29 1007.8
20260508224645 17 360 4.8 14.5 0.00 0.00 0.00 29 1007.8
20260508224156 17 244 6.4 14.5 0.00 0.00 0.00 29 1007.8
20260508223642 17 360 6.4 17.7 0.00 0.00 0.00 29 1007.7
20260508223137 17 360 11.3 17.7 0.00 0.00 0.00 29 1007.8
20260508222628 17 360 8.0 25.7 0.00 0.00 0.00 28 1007.8
20260508222139 17 360 11.3 25.7 0.00 0.00 0.00 30 1008.0
20260508221643 17 360 11.3 19.3 0.00 0.00 0.00 29 1008.0
20260508221154 17 206 12.9 19.3 0.00 0.00 0.00 30 1008.0
20260508220643 17 360 6.4 16.1 0.00 0.00 0.00 30 1007.9
20260508220203 17 360 8.0 17.7 0.00 0.00 0.00 29 1008.1
20260508215630 17 360 11.3 17.7 0.00 0.00 0.00 29 1007.9
20260508215140 17 360 6.4 17.7 0.00 0.00 0.00 29 1007.9
20260508214635 17 32 8.0 17.7 0.00 0.00 0.00 29 1007.9
20260508214126 17 360 4.8 14.5 0.00 0.00 0.00 30 1007.9
20260508213706 17 360 8.0 17.7 0.00 0.00 0.00 29 1008.0
20260508213136 17 360 9.7 19.3 0.00 0.00 0.00 29 1008.0
20260508212627 17 360 6.4 14.5 0.00 0.00 0.00 29 1008.1
20260508212158 17 360 8.0 14.5 0.00 0.00 0.00 29 1008.1
20260508211640 17 360 4.8 16.1 0.00 0.00 0.00 31 1008.1
20260508211151 17 360 8.0 16.1 0.00 0.00 0.00 29 1008.1
20260508210642 17 300 8.0 17.7 0.00 0.00 0.00 28 1008.2
20260508210158 17 360 8.0 17.7 0.00 0.00 0.00 30 1008.3
20260508205652 17 360 4.8 20.9 0.00 0.00 0.00 29 1008.2
20260508205133 17 360 8.0 20.9 0.00 0.00 0.00 29 1008.3
20260508204657 17 360 8.0 17.7 0.00 0.00 0.00 29 1008.3
20260508204126 17 360 9.7 19.3 0.00 0.00 0.00 29 1008.3
20260508203637 17 360 9.7 25.7 0.00 0.00 0.00 30 1008.4
20260508203132 17 229 12.9 25.7 0.00 0.00 0.00 30 1008.5
20260508202652 17 360 8.0 19.3 0.00 0.00 0.00 30 1008.4
20260508202138 17 360 12.9 20.9 0.00 0.00 0.00 29 1008.5
20260508201633 17 360 8.0 14.5 0.00 0.00 0.00 28 1008.6
20260508201143 17 360 4.8 17.7 0.00 0.00 0.00 29 1008.6
20260508200633 17 305 8.0 17.7 0.00 0.00 0.00 30 1008.7
20260508200137 17 360 6.4 22.5 0.00 0.00 0.00 29 1008.8
20260508195648 17 360 11.3 22.5 0.00 0.00 0.00 30 1008.9
20260508195139 17 288 11.3 20.9 0.00 0.00 0.00 30 1008.9
20260508194629 17 360 8.0 17.7 0.00 0.00 0.00 29 1008.9
20260508194140 17 360 6.4 17.7 0.00 0.00 0.00 30 1009.0
20260508193631 16 360 3.2 19.3 0.00 0.00 0.00 29 1009.1
20260508193126 16 360 11.3 22.5 0.00 0.00 0.00 29 1009.2
20260508192645 16 360 9.7 25.7 0.00 0.00 0.00 30 1009.2
20260508192127 16 360 11.3 25.7 0.00 0.00 0.00 29 1009.2
20260508191651 16 360 9.7 24.1 0.00 0.00 0.00 31 1009.1
20260508191206 16 360 6.4 24.1 0.00 0.00 0.00 31 1009.2
20260508190627 16 220 8.0 19.3 0.00 0.00 0.00 30 1009.2
20260508190129 16 360 6.4 19.3 0.00 0.00 0.00 29 1009.4
20260508185640 16 360 8.0 16.1 0.00 0.00 0.00 31 1009.4
20260508185131 16 360 8.0 16.1 0.00 0.00 0.00 30 1009.4
20260508184635 16 360 6.4 16.1 0.00 0.00 0.00 32 1009.5
20260508184145 16 360 8.0 19.3 0.00 0.00 0.00 30 1009.5
20260508183632 16 360 9.7 20.9 0.00 0.00 0.00 30 1009.6
20260508183127 16 360 11.3 20.9 0.00 0.00 0.00 30 1009.6
20260508182637 16 360 8.0 20.9 0.00 0.00 0.00 31 1009.7
20260508182126 16 360 11.3 20.9 0.00 0.00 0.00 30 1009.7
20260508181650 16 360 8.0 19.3 0.00 0.00 0.00 31 1009.7
20260508181132 16 360 3.2 20.9 0.00 0.00 0.00 32 1009.8
20260508180651 16 360 6.4 22.5 0.00 0.00 0.00 32 1009.8
20260508180142 16 224 8.0 17.7 0.00 0.00 0.00 33 1009.9
20260508175633 15 360 8.0 17.7 0.00 0.00 0.00 33 1009.9
20260508175143 15 360 4.8 17.7 0.00 0.00 0.00 33 1010.1
20260508174646 15 360 9.7 14.5 0.00 0.00 0.00 35 1010.1
20260508174136 15 360 6.4 14.5 0.00 0.00 0.00 35 1010.3
20260508173627 15 360 3.2 16.1 0.00 0.00 0.00 37 1010.4
20260508173146 15 360 8.0 16.1 0.00 0.00 0.00 37 1010.5
20260508172636 15 360 9.7 19.3 0.00 0.00 0.00 37 1010.5
20260508172146 15 360 12.9 19.3 0.00 0.00 0.00 38 1010.5
20260508171641 15 360 1.6 14.5 0.00 0.00 0.00 37 1010.6
20260508171152 15 360 8.0 19.3 0.00 0.00 0.00 37 1010.7
20260508170651 15 360 12.9 19.3 0.00 0.00 0.00 35 1010.9
20260508170126 16 360 9.7 19.3 0.00 0.00 0.00 35 1011.0
20260508165637 15 360 11.3 19.3 0.00 0.00 0.00 35 1011.0
20260508165144 15 360 1.6 17.7 0.00 0.00 0.00 37 1011.1
20260508164708 15 169 8.0 20.9 0.00 0.00 0.00 38 1011.2
20260508164158 15 360 9.7 24.1 0.00 0.00 0.00 37 1011.2
20260508163628 15 360 9.7 19.3 0.00 0.00 0.00 36 1011.4
20260508163212 15 273 8.0 19.3 0.00 0.00 0.00 36 1011.5
20260508162658 15 186 4.8 20.9 0.00 0.00 0.00 35 1011.4
20260508162148 15 360 4.8 12.9 0.00 0.00 0.00 36 1011.4
20260508161651 15 22 3.2 16.1 0.00 0.00 0.00 38 1011.4
20260508161140 15 192 6.4 19.3 0.00 0.00 0.00 37 1011.6
20260508160632 15 150 8.0 22.5 0.00 0.00 0.00 37 1011.6
20260508160127 14 360 14.5 22.5 0.00 0.00 0.00 37 1011.5
20260508155701 15 360 3.2 19.3 0.00 0.00 0.00 39 1011.6
20260508155131 14 360 3.2 19.3 0.00 0.00 0.00 39 1011.6
20260508154625 14 360 4.8 14.5 0.00 0.00 0.00 39 1011.6
20260508154136 13 148 8.0 14.5 0.00 0.00 0.00 39 1011.7
20260508153627 14 360 8.0 16.1 0.00 0.00 0.00 39 1011.7
20260508153130 13 151 4.8 20.9 0.00 0.00 0.00 41 1011.6
20260508152640 13 360 9.7 20.9 0.00 0.00 0.00 42 1011.8
20260508152131 13 133 3.2 17.7 0.00 0.00 0.00 43 1011.8
20260508151712 13 360 6.4 17.7 0.00 0.00 0.00 44 1011.8
20260508151140 13 360 8.0 17.7 0.00 0.00 0.00 40 1011.8
20260508150650 13 144 4.8 17.7 0.00 0.00 0.00 38 1011.9
20260508150142 13 360 6.4 16.1 0.00 0.00 0.00 40 1012.0
20260508145652 13 360 9.7 16.1 0.00 0.00 0.00 37 1012.0
20260508145151 13 236 6.4 9.7 0.00 0.00 0.00 39 1012.0
20260508144641 13 146 1.6 14.5 0.00 0.00 0.00 45 1012.0
20260508144132 13 360 8.0 14.5 0.00 0.00 0.00 43 1012.0
20260508143643 13 360 8.0 17.7 0.00 0.00 0.00 43 1012.0
20260508143137 12 360 3.2 17.7 0.00 0.00 0.00 42 1012.0
20260508142627 12 360 9.7 17.7 0.00 0.00 0.00 44 1012.1
20260508142138 12 360 6.4 16.1 0.00 0.00 0.00 47 1012.2
20260508141641 12 360 6.4 19.3 0.00 0.00 0.00 50 1012.2
20260508141148 12 155 11.3 19.3 0.00 0.00 0.00 53 1012.2
20260508140639 12 360 6.4 8.0 0.00 0.00 0.00 52 1012.2
20260508140133 12 140 4.8 8.0 0.00 0.00 0.00 56 1012.1
20260508135644 12 157 4.8 8.0 0.00 0.00 0.00 59 1012.2
20260508135134 12 141 1.6 12.9 0.00 0.00 0.00 59 1012.2
20260508134628 12 150 4.8 8.0 0.00 0.00 0.00 61 1012.2
20260508134148 11 142 1.6 8.0 0.00 0.00 0.00 63 1012.1
20260508133630 11 145 4.8 8.0 0.00 0.00 0.00 64 1012.3
20260508133130 11 154 1.6 11.3 0.00 0.00 0.00 66 1012.2
20260508132641 11 142 4.8 9.7 0.00 0.00 0.00 66 1012.3
20260508132131 10 148 3.2 11.3 0.00 0.00 0.00 68 1012.3
20260508131625 10 148 3.2 11.3 0.00 0.00 0.00 68 1012.5
20260508131135 9 148 3.2 8.0 0.00 0.00 0.00 70 1012.5
20260508130626 9 145 4.8 8.0 0.00 0.00 0.00 70 1012.5
20260508130150 8 140 1.6 8.0 0.00 0.00 0.00 72 1012.6
20260508125640 8 153 4.8 9.7 0.00 0.00 0.00 73 1012.6
20260508125147 8 157 1.6 12.9 0.00 0.00 0.00 73 1012.7
20260508124642 7 145 4.8 12.9 0.00 0.00 0.00 73 1012.6
20260508124133 7 156 1.6 6.4 0.00 0.00 0.00 75 1012.6
20260508123643 7 145 3.2 11.3 0.00 0.00 0.00 76 1012.6
20260508123147 7 146 3.2 11.3 0.00 0.00 0.00 76 1012.7
20260508122628 7 140 3.2 8.0 0.00 0.00 0.00 78 1012.6
20260508122148 6 140 3.2 6.4 0.00 0.00 0.00 79 1012.6
20260508121639 6 132 4.8 6.4 0.00 0.00 0.00 79 1012.6
20260508121130 6 46 1.6 3.2 0.00 0.00 0.00 80 1012.4
20260508120641 6 360 1.6 3.2 0.00 0.00 0.00 81 1012.4
20260508120136 6 360 0.0 1.6 0.00 0.00 0.00 82 1012.3
20260508115627 5 360 0.0 1.6 0.00 0.00 0.00 83 1012.2
20260508115207 5 360 0.0 1.6 0.00 0.00 0.00 84 1012.2
20260508114641 5 355 0.0 0.0 0.00 0.00 0.00 85 1012.2
20260508114131 4 355 0.0 1.6 0.00 0.00 0.00 87 1012.1
20260508113638 3 355 0.0 1.6 0.00 0.00 0.00 87 1012.1
20260508113133 3 350 0.0 1.6 0.00 0.00 0.00 87 1012.1
20260508112653 3 355 0.0 0.0 0.00 0.00 0.00 88 1012.1
20260508112203 3 355 0.0 0.0 0.00 0.00 0.00 89 1012.1
20260508111636 2 355 0.0 0.0 0.00 0.00 0.00 88 1012.1
20260508111126 2 355 0.0 0.0 0.00 0.00 0.00 88 1012.1
20260508110637 2 350 0.0 0.0 0.00 0.00 0.00 88 1012.1
20260508110127 2 350 0.0 1.6 0.00 0.00 0.00 88 1012.1
20260508105647 2 355 0.0 1.6 0.00 0.00 0.00 88 1012.1
20260508105157 2 355 0.0 0.0 0.00 0.00 0.00 88 1012.0
20260508104631 2 355 0.0 0.0 0.00 0.00 0.00 88 1011.9
20260508104212 2 355 0.0 0.0 0.00 0.00 0.00 88 1011.9
20260508103702 2 355 0.0 1.6 0.00 0.00 0.00 87 1011.8
20260508103131 2 355 0.0 1.6 0.00 0.00 0.00 87 1011.9
20260508102642 2 355 0.0 1.6 0.00 0.00 0.00 87 1011.9
20260508102132 2 355 0.0 1.6 0.00 0.00 0.00 87 1011.9
20260508101636 2 355 0.0 1.6 0.00 0.00 0.00 87 1011.9
20260508101146 2 355 0.0 1.6 0.00 0.00 0.00 86 1012.0
20260508100637 2 355 0.0 0.0 0.00 0.00 0.00 86 1012.0
20260508100131 2 355 0.0 0.0 0.00 0.00 0.00 86 1012.0
20260508095646 2 355 0.0 0.0 0.00 0.00 0.00 86 1012.1
20260508095125 2 355 0.0 0.0 0.00 0.00 0.00 85 1011.9
20260508094648 2 355 0.0 0.0 0.00 0.00 0.00 85 1012.1
20260508094138 3 355 0.0 0.0 0.00 0.00 0.00 85 1012.0
20260508093628 3 355 0.0 1.6 0.00 0.00 0.00 85 1012.0
20260508093154 3 355 0.0 3.2 0.00 0.00 0.00 85 1011.9
20260508092644 3 355 0.0 3.2 0.00 0.00 0.00 84 1012.1
20260508092151 3 355 0.0 1.6 0.00 0.00 0.00 84 1012.1